DateTime,F1_A11,F1_S11,BsB_S11,BsG_S11,BsR_S11,BbsB_S11,BbsG_S11,BbsR_S11,BaB_A11,BaG_A11,BaR_A11,T_S11,U_S11,P_S11,T1_A11
2016-09-17T00:00:00Z,0000388,20000608,,,,,,,,,,27.5,01.8,0647.4,34.8
2016-09-17T00:01:00Z,0000388,20000608,,,,,,,,,,27.5,01.8,0647.4,34.8
2016-09-17T00:02:00Z,0000388,20000608,,,,,,,,,,27.5,01.8,0647.4,34.8
2016-09-17T00:03:00Z,0000388,60000608,,,,,,,,,,27.5,01.8,0647.3,34.8
2016-09-17T00:04:00Z,0000388,40000608,0000.80,0000.16,0000.31,0000.29,0000.10,0000.31,0000.07,-000.17,-000.10,27.6,01.9,0647.9,34.8
2016-09-17T00:05:00Z,0000388,00000608,0000.62,0000.05,0000.31,-000.10,0000.18,-000.02,-000.18,0000.25,0000.21,27.6,01.9,0647.9,34.8
2016-09-17T00:06:00Z,0000388,00000608,0000.20,-000.30,0000.40,-000.28,-000.07,0000.05,-000.07,-000.07,-000.18,27.7,01.9,0647.9,34.8
2016-09-17T00:07:00Z,0000388,00000608,0001.17,0000.56,0000.10,-000.03,0000.00,-000.38,0000.03,-000.15,-000.03,27.7,01.9,0647.8,34.8
2016-09-17T00:08:00Z,0000388,00000608,0000.58,0000.14,0000.80,0000.11,0000.02,0000.25,0000.18,0000.14,0000.15,27.7,01.9,0647.7,34.8
2016-09-17T00:09:00Z,0000388,00000608,0000.23,0000.74,0000.57,-000.21,-000.33,-000.11,0000.04,-000.09,-000.24,27.7,01.8,0647.6,34.8
2016-09-17T00:10:00Z,0000388,00000608,0000.28,-000.45,0000.66,-000.21,-000.16,0000.00,0000.00,-000.07,-000.33,27.6,01.9,0647.4,34.8
2016-09-17T00:11:00Z,0000388,00000608,-000.11,-000.04,0000.43,0000.43,0000.49,-000.30,0000.20,-000.04,0000.39,27.6,01.9,0647.4,34.8
2016-09-17T00:12:00Z,0000388,00000608,0001.04,0000.83,0000.40,0000.52,0000.38,-000.05,-000.33,-000.04,0000.09,27.5,01.8,0647.3,34.8
2016-09-17T00:13:00Z,0000388,00000608,-000.06,0000.39,0000.34,0000.11,0000.05,0000.08,0000.07,0000.03,-000.29,27.5,01.9,0647.2,34.8
2016-09-17T00:14:00Z,0000388,00000608,0000.53,0000.50,0000.78,0000.18,-000.08,-000.15,0000.14,0000.18,0000.17,27.5,02.0,0647.1,34.8
2016-09-17T00:15:00Z,0000388,00000608,0000.00,-000.57,0000.74,0000.05,0000.00,-000.46,0000.04,-000.11,0000.02,27.5,01.9,0647.0,34.7
2016-09-17T00:16:00Z,0000388,00000608,-000.67,-000.14,0000.87,-000.62,-000.02,-000.07,-000.03,0000.04,-000.06,27.5,01.9,0646.9,34.7
2016-09-17T00:17:00Z,0000388,00000608,0000.21,0000.86,0000.29,-000.21,0000.15,0000.31,-000.15,-000.03,0000.36,27.5,01.9,0646.8,34.7
2016-09-17T00:18:00Z,0000388,00000608,0001.14,0000.10,0000.41,0000.00,0000.39,-000.66,0000.04,0000.06,0000.08,27.5,01.9,0646.7,34.7
2016-09-17T00:19:00Z,0000388,00000608,0000.15,0000.10,-000.34,0000.95,0000.03,-000.38,0000.11,0000.19,0000.07,27.5,01.8,0646.6,34.7
2016-09-17T00:20:00Z,0000388,00000608,0000.97,0000.70,0000.30,-000.30,-000.36,-000.72,-000.08,-000.01,-000.34,27.5,01.9,0646.6,34.7
2016-09-17T00:21:00Z,0000388,00000608,-000.34,-000.06,0000.15,-000.28,-000.08,0000.07,0000.06,0000.04,0000.27,27.5,01.8,0646.5,34.7
2016-09-17T00:22:00Z,0000388,00000608,0000.24,-000.06,-000.10,0000.16,0000.07,-000.33,0000.17,0000.08,-000.01,27.6,01.8,0646.3,34.7
2016-09-17T00:23:00Z,0000388,00000608,0000.88,0000.93,0000.15,-000.10,0000.15,0000.12,0000.17,-000.04,0000.04,27.6,01.8,0646.3,34.7
2016-09-17T00:24:00Z,0000388,00000608,0001.34,0000.54,0000.20,-000.07,0000.08,0000.05,0000.12,-000.08,-000.09,27.6,01.9,0646.2,34.7
2016-09-17T00:25:00Z,0000388,00000608,-000.24,-000.13,0000.18,-000.18,0000.36,0000.16,-000.03,0000.13,-000.25,27.6,01.8,0646.1,34.7
2016-09-17T00:26:00Z,0000388,00000608,0000.46,0000.54,0000.09,-000.13,0000.21,-000.21,-000.11,-000.21,-000.06,27.5,01.9,0646.0,34.7
2016-09-17T00:27:00Z,0000388,00010608,0000.02,0000.20,0000.14,-000.31,0000.07,-000.07,-000.10,0000.04,0000.06,27.5,01.8,0645.9,34.7
2016-09-17T00:28:00Z,0000388,00000608,-001.10,0000.16,0000.16,-000.08,0000.15,-000.10,0000.10,-000.12,0000.07,27.4,01.9,0645.7,34.7
2016-09-17T00:29:00Z,0000388,00000608,0000.95,0000.72,-000.09,-000.72,-000.11,-000.18,-000.02,0000.20,0000.12,27.4,01.9,0645.6,34.7
2016-09-17T00:30:00Z,0000388,00000608,0000.93,-000.02,0000.60,-000.48,0000.64,0000.26,0000.06,-000.04,-000.15,27.3,01.9,0645.4,34.7
2016-09-17T00:31:00Z,0000388,00000608,0000.14,0000.51,0000.18,0000.57,-000.23,-000.21,-000.23,-000.02,-000.08,27.3,01.9,0645.3,34.7
2016-09-17T00:32:00Z,0000388,00000608,0001.02,0000.34,0000.14,0000.21,-000.26,-000.12,0000.19,0000.02,0000.36,27.3,01.9,0645.2,34.7
2016-09-17T00:33:00Z,0000388,00000608,0000.91,0000.63,0000.10,-000.31,0000.41,-000.23,0000.02,0000.19,0000.07,27.3,01.9,0645.1,34.7
2016-09-17T00:34:00Z,0000388,00000608,0000.52,0000.68,0000.40,0000.85,0000.03,0000.10,0000.01,-000.02,-000.37,27.3,02.0,0645.0,34.7
2016-09-17T00:35:00Z,0000388,00000608,0000.71,0000.15,0000.51,-000.12,-000.07,-000.15,0000.16,0000.09,0000.23,27.3,02.0,0644.8,34.7
2016-09-17T00:36:00Z,0000388,00000608,0000.32,0000.11,0000.31,-000.02,0000.38,0000.03,0000.07,0000.12,-000.08,27.4,02.0,0644.7,34.7
2016-09-17T00:37:00Z,0000388,00000608,0000.24,0000.00,0000.04,-000.28,0000.49,-000.15,-000.22,-000.06,0000.06,27.4,01.8,0644.6,34.7
2016-09-17T00:38:00Z,0000388,00000608,0000.15,-000.19,0000.19,0000.61,-000.10,0000.13,0000.09,0000.03,-000.07,27.4,01.9,0644.4,34.7
2016-09-17T00:39:00Z,0000388,00000608,0000.57,0000.13,0000.10,-000.03,0000.05,-000.15,-000.09,0000.04,0000.20,27.5,01.9,0644.4,34.7
2016-09-17T00:40:00Z,0000388,00000608,0000.04,0000.45,0000.50,-000.69,0000.16,0000.03,0000.05,-000.07,-000.11,27.5,01.9,0644.3,34.7
2016-09-17T00:41:00Z,0000388,00000608,0000.65,0000.31,0000.48,0000.69,0000.10,0000.07,0000.09,0000.15,0000.01,27.5,01.9,0644.2,34.7
2016-09-17T00:42:00Z,0000388,00000608,0000.40,0000.54,-000.05,-000.15,-000.03,-000.30,0000.13,0000.03,-000.04,27.5,01.9,0644.2,34.7
2016-09-17T00:43:00Z,0000388,00000608,0000.88,-000.34,0000.12,-000.28,0000.20,0000.10,-000.28,-000.03,0000.04,27.5,01.9,0644.1,34.7
2016-09-17T00:44:00Z,0000388,00000608,-000.32,0000.26,0000.02,0000.51,-000.10,0000.07,0000.32,-000.02,0000.07,27.5,01.8,0644.1,34.7
2016-09-17T00:45:00Z,0000388,00000608,0000.21,-000.32,-000.24,-000.41,0000.03,-000.45,0000.02,-000.10,-000.15,27.5,01.8,0644.0,34.8
2016-09-17T00:46:00Z,0000388,00000608,0000.21,0000.44,0000.23,-000.33,0000.02,0000.12,-000.04,0000.10,0000.02,27.5,01.8,0643.9,34.8
2016-09-17T00:47:00Z,0000388,00000608,-001.22,0000.48,-000.02,-000.10,0000.31,-000.48,0000.04,-000.16,0000.16,27.5,01.8,0643.7,34.8
2016-09-17T00:48:00Z,0000388,00000608,-000.23,0000.67,0000.38,0000.30,0000.48,0000.18,-000.02,0000.23,0000.07,27.5,01.8,0643.6,34.8
2016-09-17T00:49:00Z,0000388,00000608,0001.63,0000.22,0000.09,0000.40,0000.26,-000.16,0000.06,0000.14,0000.15,27.5,01.8,0643.5,34.8
2016-09-17T00:50:00Z,0000388,00000608,0000.91,-000.16,0000.44,-000.02,0000.18,0000.38,0000.05,-000.14,0000.12,27.5,01.8,0643.4,34.8
2016-09-17T00:51:00Z,0000388,00000608,0000.33,-000.23,0000.18,0000.35,0000.23,0000.25,0000.08,-000.01,-000.12,27.6,01.8,0643.3,34.8
2016-09-17T00:52:00Z,0000388,00000608,0000.66,0000.79,-000.24,-000.59,-000.15,-000.48,-000.17,0000.06,0000.02,27.6,01.9,0643.1,34.8
2016-09-17T00:53:00Z,0000388,00000608,0000.15,0000.42,-000.23,0000.76,-000.08,-000.38,0000.09,0000.07,0000.02,27.6,01.8,0642.9,34.8
2016-09-17T00:54:00Z,0000388,00000608,0000.53,0000.18,0000.17,-000.03,-000.31,-000.03,0000.07,-000.06,-000.18,27.7,01.8,0642.8,34.8
2016-09-17T00:55:00Z,0000388,00000608,0000.79,-000.06,-000.15,-000.26,0000.15,-000.15,0000.03,0000.11,-000.28,27.6,01.8,0642.7,34.8
2016-09-17T00:56:00Z,0000388,00000608,-000.02,0000.02,-000.12,0000.17,0000.46,-000.25,0000.11,-000.10,0000.53,27.6,01.8,0642.6,34.8
2016-09-17T00:57:00Z,0000388,40000608,,,,,,,,,,,,0642.5,34.8
2016-09-17T00:58:00Z,0000388,60000608,,,,,,,,,,27.5,01.7,0641.5,34.8
2016-09-17T00:59:00Z,0000388,20000608,,,,,,,,,,27.4,01.7,0641.4,34.8
2016-09-17T01:00:00Z,0000388,20000608,,,,,,,,,,27.3,01.7,0641.4,34.7
2016-09-17T01:01:00Z,0000388,20000608,,,,,,,,,,27.3,01.7,0641.3,34.7
2016-09-17T01:02:00Z,0000388,20000608,,,,,,,,,,27.3,01.7,0641.2,34.7
2016-09-17T01:03:00Z,0000388,60000608,,,,,,,,,,27.4,01.7,0641.2,34.7
2016-09-17T01:04:00Z,0000388,40000608,0000.23,0000.48,0000.11,-000.05,0000.64,0000.23,-000.22,-000.02,-000.20,27.4,01.8,0641.8,34.7
2016-09-17T01:05:00Z,0000388,00000608,-000.48,0000.44,0000.06,0000.58,0000.07,0000.35,0000.13,0000.20,0000.33,27.3,01.8,0641.7,34.7
2016-09-17T01:06:00Z,0000388,00000608,-000.36,0000.86,-000.31,0000.78,0000.31,-000.10,0000.10,0000.02,0000.05,27.3,01.9,0641.6,34.7
2016-09-17T01:07:00Z,0000388,00000608,0000.41,-000.48,0000.32,0000.20,0000.00,0000.10,0000.02,0000.14,-000.05,27.3,01.9,0641.5,34.7
2016-09-17T01:08:00Z,0000388,00000608,-001.12,-000.13,0000.17,-000.20,0000.15,0000.10,-000.07,0000.06,0000.12,27.4,01.8,0641.4,34.7
2016-09-17T01:09:00Z,0000388,00000608,0000.53,-000.04,0000.40,0000.40,0000.15,0000.36,0000.19,-000.05,-000.06,27.4,01.9,0641.3,34.7
2016-09-17T01:10:00Z,0000388,00000608,0000.01,0000.22,-000.29,0000.43,-000.02,0000.13,-000.13,0000.14,0000.35,27.4,01.9,0641.2,34.7
2016-09-17T01:11:00Z,0000388,00000608,-000.32,-000.04,-000.22,-000.43,0000.26,-000.26,0000.29,0000.03,-000.18,27.4,01.8,0641.1,34.7
2016-09-17T01:12:00Z,0000388,00000608,0000.07,0000.55,0000.41,0000.08,0000.15,0000.35,0000.10,0000.08,-000.01,27.5,01.9,0641.0,34.7
2016-09-17T01:13:00Z,0000388,00000608,-000.26,-000.30,0000.29,0000.28,0000.21,0000.38,-000.14,-000.16,-000.11,27.5,01.8,0640.9,34.7
2016-09-17T01:14:00Z,0000388,00000608,0000.94,0000.16,-000.96,0000.23,0000.20,0000.10,-000.07,0000.02,0000.28,27.5,01.8,0640.8,34.7
2016-09-17T01:15:00Z,0000388,00000608,-000.14,0000.42,0000.79,0000.36,0000.25,-000.10,0000.19,0000.12,-000.32,27.5,01.8,0640.7,34.8
2016-09-17T01:16:00Z,0000388,00000608,-000.39,-000.58,0000.09,0000.41,-000.03,0000.23,-000.05,-000.01,0000.19,27.5,01.9,0640.7,34.8
2016-09-17T01:17:00Z,0000388,00000608,-000.42,-000.28,0000.26,-001.21,0000.12,0000.18,-000.09,0000.03,0000.01,27.5,01.8,0640.7,34.8
2016-09-17T01:18:00Z,0000388,00000608,0000.99,0000.67,0000.50,-000.26,0000.48,0000.18,0000.03,0000.02,-000.07,27.5,01.8,0640.6,34.8
2016-09-17T01:19:00Z,0000388,00000608,-000.06,0000.29,0000.06,-000.08,0000.00,0000.00,-000.07,0000.00,-000.28,27.5,01.9,0640.6,34.8
2016-09-17T01:20:00Z,0000388,00000608,-000.71,-000.05,-000.25,-000.51,-000.58,0000.07,0000.01,0000.08,0000.08,27.5,01.8,0640.5,34.8
2016-09-17T01:21:00Z,0000388,00000608,0000.06,0000.56,0000.03,-000.02,-000.43,-000.10,0000.03,-000.07,0000.43,27.5,01.8,0640.4,34.8
2016-09-17T01:22:00Z,0000388,00000608,0000.82,0000.41,0000.24,-000.08,0000.00,0000.55,-000.11,-000.02,0000.05,27.5,01.8,0640.3,34.8
2016-09-17T01:23:00Z,0000388,00000608,0000.50,0000.61,0000.53,0000.78,0000.21,0000.50,0000.26,0000.03,-000.19,27.6,01.9,0640.2,34.8
2016-09-17T01:24:00Z,0000388,00000608,-000.12,0000.45,0000.02,0000.94,-000.05,0000.41,0000.18,0000.04,-000.07,27.6,01.8,0640.2,34.8
2016-09-17T01:25:00Z,0000388,00000608,-000.16,-000.09,0000.05,-000.05,0000.21,0000.07,-000.09,-000.13,-000.02,27.6,01.9,0640.1,34.8
2016-09-17T01:26:00Z,0000388,00000608,0000.91,0000.26,0000.55,0000.45,-000.41,0000.07,0000.04,0000.06,-000.09,27.6,01.8,0640.0,34.8
2016-09-17T01:27:00Z,0000388,00000608,0000.22,-000.24,0000.60,0000.13,0000.02,0000.23,0000.01,0000.01,0000.04,27.5,01.8,0640.0,34.8
2016-09-17T01:28:00Z,0000388,00000608,0001.01,0000.37,-000.33,0000.00,-000.13,-000.23,-000.01,-000.09,-000.27,27.5,01.8,0639.9,34.8
2016-09-17T01:29:00Z,0000388,00000608,0000.34,0000.21,0000.13,0000.07,-000.17,0000.22,-000.25,-000.07,0000.11,27.5,01.8,0639.9,34.8
2016-09-17T01:30:00Z,0000388,00000608,-000.22,-000.20,-000.16,0000.50,-000.12,0000.00,-000.03,0000.07,0000.13,27.4,01.8,0639.9,34.7
2016-09-17T01:31:00Z,0000388,00000608,0000.32,0000.05,-000.13,-000.30,-000.66,0000.33,0000.19,-000.02,0000.01,27.3,01.8,0639.8,34.7
2016-09-17T01:32:00Z,0000388,00000608,-000.37,-000.04,0000.02,-000.55,-000.03,0000.22,0000.11,0000.28,-000.01,27.3,01.8,0639.6,34.7
2016-09-17T01:33:00Z,0000388,00000608,-000.31,0000.64,-000.26,-000.27,0000.17,0000.28,-000.00,-000.25,0000.03,27.3,01.8,0639.4,34.7
2016-09-17T01:34:00Z,0000388,00000608,0001.12,0000.33,0000.00,0000.51,0000.45,0000.02,0000.07,0000.23,0000.17,27.3,01.8,0639.4,34.7
2016-09-17T01:35:00Z,0000388,00000608,-000.91,-000.08,-000.18,-000.28,0000.12,0000.35,0000.07,0000.00,-000.13,27.3,01.8,0639.4,34.7
2016-09-17T01:36:00Z,0000388,00000608,-000.34,0000.43,-000.11,0000.48,0000.40,0000.13,-000.18,-000.01,0000.43,27.3,01.8,0639.3,34.7
2016-09-17T01:37:00Z,0000388,00000608,0000.46,0000.28,0000.18,0000.43,-000.28,0000.17,0000.10,0000.13,-000.13,27.3,01.9,0639.2,34.7
2016-09-17T01:38:00Z,0000388,00000608,-000.80,0000.30,-000.40,0000.07,0000.31,0000.02,0000.05,-000.14,-000.15,27.4,01.9,0639.1,34.7
2016-09-17T01:39:00Z,0000388,00000608,0000.04,0000.41,-000.22,-000.23,0000.33,-000.02,0000.02,0000.17,-000.04,27.4,01.9,0639.0,34.7
2016-09-17T01:40:00Z,0000388,00000608,0000.79,0000.62,0000.17,-000.15,-000.35,0000.13,-000.03,0000.09,0000.32,27.4,01.8,0638.9,34.7
2016-09-17T01:41:00Z,0000388,00000608,-000.69,-000.54,-000.11,0000.03,0000.07,0000.33,0000.03,-000.11,-000.24,27.4,01.9,0638.9,34.7
2016-09-17T01:42:00Z,0000388,00000608,0000.83,0000.38,0000.13,0000.38,0000.03,-000.28,0000.08,0000.05,0000.17,27.5,01.9,0638.9,34.7
2016-09-17T01:43:00Z,0000388,00000608,-001.24,0000.19,-000.05,0000.22,0000.31,0000.32,0000.09,0000.08,0000.03,27.5,01.8,0638.8,34.7
2016-09-17T01:44:00Z,0000388,00000608,-000.97,-000.06,0000.07,-000.28,0000.02,0000.43,0000.07,0000.10,-000.32,27.5,01.8,0638.8,34.7
2016-09-17T01:45:00Z,0000388,00000608,0000.23,0000.37,-000.16,-000.51,-000.05,-000.17,-000.21,-000.06,0000.25,27.5,01.9,0638.8,34.8
2016-09-17T01:46:00Z,0000388,00000608,-000.88,-000.21,-000.04,0000.30,0000.02,0000.12,-000.09,0000.04,-000.10,27.5,01.9,0638.7,34.8
2016-09-17T01:47:00Z,0000388,00000608,-000.20,0000.37,0000.31,-000.22,0000.00,0000.50,0000.16,-000.17,-000.02,27.5,01.8,0638.7,34.8
2016-09-17T01:48:00Z,0000388,00000608,-000.74,0000.22,0000.00,0000.22,0000.18,-000.08,-000.01,0000.14,-000.02,27.5,01.7,0638.6,34.8
2016-09-17T01:49:00Z,0000388,00000608,0000.00,0000.00,-000.16,-000.25,0000.25,-000.43,-000.04,-000.02,-000.02,27.5,01.7,0638.6,34.8
2016-09-17T01:50:00Z,0000388,00000608,-000.31,-000.22,-000.18,-000.18,-000.08,-000.20,0000.10,0000.02,0000.21,27.5,01.7,0638.4,34.8
2016-09-17T01:51:00Z,0000388,00000608,-000.69,-000.39,0000.62,-000.03,-000.18,0000.33,0000.17,0000.05,-000.06,27.5,01.8,0638.4,34.8
2016-09-17T01:52:00Z,0000388,00000608,0000.38,0000.02,-000.22,-000.76,-000.17,-000.03,-000.06,0000.05,0000.11,27.5,01.7,0638.3,34.8
2016-09-17T01:53:00Z,0000388,00000608,-000.63,-000.24,0000.35,-000.42,-000.13,0000.17,0000.07,-000.03,0000.05,27.5,01.7,0638.3,34.8
2016-09-17T01:54:00Z,0000388,00000608,-000.17,-000.17,-000.15,-000.27,-000.05,-000.33,0000.02,0000.06,-000.13,27.5,01.8,0638.3,34.8
2016-09-17T01:55:00Z,0000388,00000608,0000.19,0000.85,0000.26,-000.10,0000.36,0000.05,0000.00,-000.03,0000.08,27.5,01.8,0638.2,34.8
2016-09-17T01:56:00Z,0000388,00000608,0000.71,0000.36,0000.13,0000.33,0000.33,-000.10,0000.08,0000.16,0000.06,27.5,01.8,0638.2,34.8
2016-09-17T01:57:00Z,0000388,40000608,,,,,,,,,,,,0638.2,34.8
2016-09-17T01:58:00Z,0000388,60000608,,,,,,,,,,27.5,01.7,0637.3,34.8
2016-09-17T01:59:00Z,0000388,20000608,,,,,,,,,,27.5,01.7,0637.2,34.8
2016-09-17T02:00:00Z,0000388,20000608,,,,,,,,,,27.5,01.7,0637.2,34.8
2016-09-17T02:01:00Z,0000388,20000608,,,,,,,,,,27.5,01.7,0637.2,34.8
2016-09-17T02:02:00Z,0000388,20000608,,,,,,,,,,27.5,01.7,0637.2,34.8
2016-09-17T02:03:00Z,0000388,60000608,,,,,,,,,,27.5,01.7,0637.2,34.8
2016-09-17T02:04:00Z,0000388,40000608,0000.86,0000.63,-000.24,-000.60,0000.30,-000.13,-000.09,0000.19,-000.02,27.7,01.8,0638.1,34.8
2016-09-17T02:05:00Z,0000388,00000608,0000.33,0000.45,-000.30,-000.02,-000.20,0000.32,0000.27,-000.10,-000.11,27.8,01.7,0638.1,34.8
2016-09-17T02:06:00Z,0000388,00000608,0000.91,0000.84,0000.31,-000.25,0000.28,0000.30,0000.04,-000.10,-000.15,27.7,01.6,0638.0,34.8
2016-09-17T02:07:00Z,0000388,00000608,0001.27,0000.78,-000.69,0000.60,-000.15,-000.37,-000.01,-000.07,0000.04,27.7,01.7,0638.0,34.8
2016-09-17T02:08:00Z,0000388,00000608,0000.75,0000.86,-000.17,0000.12,0000.02,0000.02,-000.10,-000.14,-000.13,27.7,01.7,0638.0,34.8
2016-09-17T02:09:00Z,0000388,00000608,0000.37,0000.99,-000.10,0000.07,0000.08,-000.02,0000.20,0000.04,0000.04,27.6,01.8,0638.0,34.8
2016-09-17T02:10:00Z,0000388,00000608,0000.85,0000.23,-000.50,-000.17,0000.18,0000.02,-000.20,-000.03,-000.09,27.5,01.8,0638.0,34.8
2016-09-17T02:11:00Z,0000388,00000608,0000.27,0000.78,-000.50,0000.22,0000.15,-000.22,0000.01,-000.01,0000.22,27.5,01.7,0638.0,34.8
2016-09-17T02:12:00Z,0000388,00000608,0000.81,0000.56,-000.54,0000.20,-000.55,-000.33,0000.01,0000.09,0000.09,27.5,01.7,0638.0,34.8
2016-09-17T02:13:00Z,0000388,00000608,0000.83,0000.55,0000.15,0000.40,0000.12,0000.37,-000.03,-000.03,-000.18,27.5,01.7,0638.1,34.8
2016-09-17T02:14:00Z,0000388,00000608,0000.70,0000.06,-000.36,-000.55,0000.12,-000.12,-000.04,0000.11,0000.08,27.5,01.8,0638.0,34.8
2016-09-17T02:15:00Z,0000388,00000608,0000.83,0000.90,-000.24,0000.02,-000.36,0000.17,-000.09,-000.04,0000.10,27.5,01.7,0638.0,34.8
2016-09-17T02:16:00Z,0000388,00000608,-000.04,0000.42,-000.24,-000.60,0000.31,-000.27,0000.04,-000.00,-000.09,27.5,01.8,0638.0,34.8
2016-09-17T02:17:00Z,0000388,00000608,0001.06,0000.46,-000.51,0000.38,0000.23,0000.27,0000.25,0000.10,0000.20,27.5,01.8,0638.0,34.8
2016-09-17T02:18:00Z,0000388,00000608,0000.65,0000.04,-000.02,-000.03,0000.05,0000.02,-000.06,0000.01,0000.23,27.5,01.8,0637.9,34.8
2016-09-17T02:19:00Z,0000388,00000608,0001.10,0000.25,0000.05,0000.13,-000.13,-000.50,0000.01,-000.07,-000.15,27.5,01.8,0637.9,34.8
2016-09-17T02:20:00Z,0000388,00000608,0001.81,0000.29,-000.19,0000.63,-000.31,0000.13,-000.12,0000.15,0000.01,27.5,01.7,0637.9,34.8
2016-09-17T02:21:00Z,0000388,00000608,0001.25,0000.13,-000.39,-000.30,0000.05,-000.22,0000.01,0000.03,-000.12,27.5,01.8,0637.9,34.8
2016-09-17T02:22:00Z,0000388,00000608,0000.86,0000.35,-000.39,-000.75,-000.05,-000.30,-000.03,0000.06,0000.06,27.6,01.7,0638.0,34.8
2016-09-17T02:23:00Z,0000388,00000608,0001.15,0000.49,0000.11,0000.27,-000.22,-000.02,0000.16,-000.13,0000.06,27.5,01.7,0638.1,34.8
2016-09-17T02:24:00Z,0000388,00000608,0001.30,0000.23,-000.70,-000.15,-000.08,-000.07,0000.03,0000.16,0000.25,27.6,01.7,0638.1,34.8
2016-09-17T02:25:00Z,0000388,00000608,0000.54,0000.45,0000.18,-000.23,-000.13,-000.22,-000.19,-000.12,-000.36,27.6,01.7,0638.1,34.8
2016-09-17T02:26:00Z,0000388,00000608,0000.91,0000.11,0000.00,-000.03,-000.31,0000.18,0000.16,0000.16,0000.18,27.6,01.7,0638.1,34.8
2016-09-17T02:27:00Z,0000388,00000608,0000.97,0000.26,0000.13,0000.02,-000.02,-000.18,0000.11,-000.12,0000.07,27.5,01.7,0638.0,34.8
2016-09-17T02:28:00Z,0000388,00000608,-000.45,0001.15,0000.00,0000.47,-000.30,-000.23,-000.16,-000.05,-000.03,27.5,01.8,0637.9,34.8
2016-09-17T02:29:00Z,0000388,00000608,0000.96,0000.83,-000.25,0000.65,-000.05,-000.02,0000.08,-000.03,-000.37,27.5,01.8,0637.9,34.8
2016-09-17T02:30:00Z,0000388,00000608,0000.70,0000.46,-000.21,0000.33,0000.33,0000.10,0000.10,-000.06,-000.13,27.5,01.7,0637.7,34.8
2016-09-17T02:31:00Z,0000388,00000608,0000.30,0000.06,-000.07,-000.37,-000.02,-000.25,-000.04,0000.10,0000.22,27.5,01.7,0637.7,34.8
2016-09-17T02:32:00Z,0000388,00000608,0000.42,0000.53,0000.37,-000.32,0000.02,0000.33,-000.00,0000.01,0000.19,27.5,01.7,0637.7,34.8
2016-09-17T02:33:00Z,0000388,00000608,0000.68,0000.63,-000.42,0000.12,-000.28,0000.10,-000.04,-000.05,0000.03,27.5,01.7,0637.7,34.8
2016-09-17T02:34:00Z,0000388,00000608,0000.82,0000.20,-000.09,-000.02,-000.02,-000.35,0000.02,0000.14,-000.04,27.5,01.7,0637.8,34.8
2016-09-17T02:35:00Z,0000388,00000608,0001.21,0000.35,-000.14,0000.02,0000.00,-000.13,0000.04,-000.04,0000.21,27.5,01.8,0637.7,34.8
2016-09-17T02:36:00Z,0000388,00000608,0000.32,0000.16,-000.05,0000.37,-000.25,0000.10,-000.06,0000.02,-000.06,27.5,01.7,0637.8,34.8
2016-09-17T02:37:00Z,0000388,00000608,0000.83,0000.59,-000.21,-000.18,-000.26,-000.23,0000.14,0000.01,0000.14,27.5,01.8,0637.9,34.8
2016-09-17T02:38:00Z,0000388,00000608,0000.74,0001.04,-000.19,-000.08,0000.43,-000.10,-000.08,0000.01,-000.08,27.5,01.7,0637.9,34.8
2016-09-17T02:39:00Z,0000388,00000608,0000.65,-000.40,-000.47,-000.42,-000.07,0000.37,-000.06,0000.03,-000.15,27.5,01.7,0638.0,34.8
2016-09-17T02:40:00Z,0000388,00000608,-000.58,0000.82,0000.02,0000.03,0000.08,0000.25,0000.21,0000.09,-000.07,27.6,01.7,0638.2,34.8
2016-09-17T02:41:00Z,0000388,00000608,0001.73,0000.43,0000.34,-000.18,0000.03,0000.22,-000.13,0000.04,-000.04,27.5,01.7,0638.3,34.8
2016-09-17T02:42:00Z,0000388,00000608,0000.85,0000.33,0000.00,0000.05,-000.12,-000.08,0000.13,-000.13,0000.11,27.6,01.6,0638.4,34.8
2016-09-17T02:43:00Z,0000388,00000608,0001.49,0000.66,-000.24,-000.03,-000.18,0000.00,-000.01,0000.01,-000.10,27.5,01.7,0638.5,34.8
2016-09-17T02:44:00Z,0000388,00000608,0000.83,0000.34,-000.72,0000.25,-000.58,-000.53,-000.07,-000.09,0000.26,27.5,01.6,0638.4,34.8
2016-09-17T02:45:00Z,0000388,00000608,0001.08,0000.35,0000.00,-000.61,-000.28,0000.12,0000.09,0000.07,-000.12,27.5,01.7,0638.4,34.8
2016-09-17T02:46:00Z,0000388,00000608,0000.89,0000.42,-000.24,0000.08,0000.33,0000.18,-000.01,0000.07,0000.20,27.5,01.7,0638.4,34.8
2016-09-17T02:47:00Z,0000388,00000608,0000.43,0000.57,0000.39,0000.10,-000.25,0000.08,-000.06,-000.00,-000.14,27.5,01.7,0638.4,34.8
2016-09-17T02:48:00Z,0000388,00000608,-000.40,-000.20,-000.02,-000.23,0000.10,-000.35,-000.00,0000.13,-000.02,27.5,01.6,0638.3,34.8
2016-09-17T02:49:00Z,0000388,00000608,0000.56,0000.00,0000.22,-000.28,-000.07,0000.37,0000.28,0000.02,0000.22,27.5,01.7,0638.3,34.8
2016-09-17T02:50:00Z,0000388,00000608,0000.04,0000.34,-000.05,-000.37,0000.12,0000.20,-000.20,-000.19,-000.33,27.6,01.7,0638.3,34.8
2016-09-17T02:51:00Z,0000388,00000608,0000.46,0000.33,0000.07,0000.28,0000.10,0000.05,0000.08,0000.18,0000.38,27.6,01.7,0638.3,34.8
2016-09-17T02:52:00Z,0000388,00000608,0000.31,-000.16,0000.38,0000.88,0000.22,-000.23,-000.11,-000.07,-000.11,27.6,01.7,0638.4,34.8
2016-09-17T02:53:00Z,0000388,00000608,0000.68,0000.70,-000.14,-000.03,-000.10,0000.00,0000.14,0000.10,0000.32,27.6,01.7,0638.6,34.8
2016-09-17T02:54:00Z,0000388,00000608,0000.21,0000.59,-000.34,-000.13,0000.18,0000.12,-000.11,-000.04,-000.26,27.6,01.7,0638.7,34.8
2016-09-17T02:55:00Z,0000388,00000608,0000.88,0000.46,-000.19,-000.85,0000.17,0000.32,-000.07,-000.10,-000.08,27.6,01.7,0638.5,34.8
2016-09-17T02:56:00Z,0000388,00000608,0001.04,0000.16,-000.33,0000.32,-000.08,0000.18,0000.22,0000.11,0000.07,27.6,01.6,0638.3,34.8
2016-09-17T02:57:00Z,0000388,40000608,,,,,,,,,,,,0638.3,34.8
2016-09-17T02:58:00Z,0000388,60000608,,,,,,,,,,27.5,01.7,0637.3,34.8
2016-09-17T02:59:00Z,0000388,20000608,,,,,,,,,,27.5,01.7,0637.3,34.8
2016-09-17T03:00:00Z,0000388,20000608,,,,,,,,,,27.5,01.7,0637.3,34.8
2016-09-17T03:01:00Z,0000388,20000608,,,,,,,,,,27.5,01.7,0637.3,34.8
2016-09-17T03:02:00Z,0000388,20000608,,,,,,,,,,27.5,01.7,0637.2,34.8
2016-09-17T03:03:00Z,0000388,60000608,,,,,,,,,,27.6,01.7,0637.2,34.8
2016-09-17T03:04:00Z,0000388,40000608,-001.41,0000.27,0000.36,0000.75,0000.40,-000.58,0000.12,-000.13,-000.10,27.7,01.6,0638.0,34.8
2016-09-17T03:05:00Z,0000388,00000608,0000.00,-000.74,0000.05,-000.35,-000.02,-000.20,0000.11,0000.19,0000.03,27.7,01.6,0637.9,34.8
2016-09-17T03:06:00Z,0000388,00000608,0000.59,0000.38,0000.23,0000.22,0000.08,-000.32,0000.35,0000.00,0000.16,27.7,01.6,0637.7,34.8
2016-09-17T03:07:00Z,0000388,00000608,0000.17,0000.43,0000.20,0000.23,0000.03,0000.05,-000.03,0000.13,0000.13,27.7,01.6,0637.6,34.8
2016-09-17T03:08:00Z,0000388,00000608,-000.31,-000.53,-000.02,-000.03,-000.17,0000.00,-000.14,-000.12,-000.37,27.7,01.6,0637.5,34.8
2016-09-17T03:09:00Z,0000388,00000608,-000.56,-000.06,0000.18,0001.07,-000.08,-000.08,0000.06,0000.06,0000.18,27.7,01.6,0637.4,34.8
2016-09-17T03:10:00Z,0000388,00000608,0000.57,0000.34,-000.40,0000.43,0000.61,-000.08,-000.09,0000.12,0000.04,27.8,01.5,0637.3,34.8
2016-09-17T03:11:00Z,0000388,00000608,0000.80,0000.36,0000.11,0000.13,0000.07,-000.12,0000.07,-000.07,-000.05,27.7,01.6,0637.4,34.8
2016-09-17T03:12:00Z,0000388,00000608,0000.52,-000.22,0000.41,-000.17,0000.23,-000.35,0000.10,-000.07,0000.24,27.7,01.6,0637.4,34.8